COSMOS 2564 (761)

Last updated on Fri Dec 12 2025 00:03:20 GMT+0000 (Coordinated Universal Time)

1 54377U 22161A 25345.53725389 .00000056 00000+0 00000+0 0 9998 2 54377 64.7381 198.9389 0008614 204.9330 155.0953 2.13102051 23631
UTC large
Height (km)
Speed (km/s)
/
Latitude / Longitude
Inclination (degrees)
Orbital Period (minutes)
Azimuth
Elevation
Range (km)
Doppler Factor

Next 0 passes for location: London (51.5072 / 0.1276)

Sorry there are no passes over London.